Weather History for Gillette, WY

Change the Weather History Date:

Thursday, November 1, 2012

  Actual Average Record
Temperature  
Mean Temperature 55 °F 40 °F  
Max Temperature 67 °F 53 °F 74 °F (1965)
Min Temperature 43 °F 27 °F -2 °F (1991)
Degree Days  
Heating Degree Days 10 26  
Month to date heating degree days 10 26  
Since 1 July heating degree days 807 935  
Cooling Degree Days 0 0  
Month to date cooling degree days 0 0  
Year to date cooling degree days 795 502  
Growing Degree Days 4 (Base 50)    
Moisture  
Dew Point 29 °F    
Average Humidity 42    
Maximum Humidity 62    
Minimum Humidity 21    
Precipitation  
Precipitation 0.00 in 0.02 in 0.35 in (1933)
Month to date precipitation 0.00 0.02  
Year to date precipitation 8.47 12.96  
Sea Level Pressure  
Sea Level Pressure 29.79 in    
Wind  
Wind Speed 13 mph (SSW)    
Max Wind Speed 23 mph    
Max Gust Speed 28 mph    
Visibility 10 miles    
Events      
T = Trace of Precipitation, MM = Missing Value Source: NWS Daily Summary

Daily Weather History Graph

Daily Weather History Graph

Search for Another Location

Airport:

Trip Planner

Search our weather history database for the weather conditions in past years. The results will help you decide how hot, cold, wet, or windy it might be!

Date:

Astronomy

Nov. 01, 2012 Rise Set
Actual Time 7:40 AM MDT 5:50 PM MDT
Civil Twilight 7:09 AM MDT 6:21 PM MDT
Nautical Twilight 6:35 AM MDT 6:55 PM MDT
Astronomical Twilight 6:01 AM MDT 7:29 PM MDT
Moon 7:45 PM MDT (11/1) 10:19 AM MDT (11/1)
Length of Visible Light 11h 11m
Length of Day
10h 10m
Waning Gibbous, 92% of the Moon is Illuminated
Nov 1
Waning Gibbous
Nov 6
Last Quarter
Nov 13
New
Nov 20
First Quarter
Nov 28
Full

Hourly Weather History & Observations

Time (MDT) Temp. Windchill Dew Point Humidity Pressure Visibility Wind Dir Wind Speed Gust Speed Precip Events Conditions
12:53 AM 46.9 °F - 32.0 °F 56% 29.91 in 10.0 mi SSE 16.1 mph - N/A   Clear
1:53 AM 45.0 °F 37.9 °F 30.9 °F 58% 29.88 in 10.0 mi South 16.1 mph - N/A   Clear
2:53 AM 46.0 °F 39.0 °F 30.9 °F 56% 29.87 in 10.0 mi SSE 17.3 mph - N/A   Clear
3:53 AM 45.0 °F 37.9 °F 30.9 °F 58% 29.85 in 10.0 mi South 16.1 mph - N/A   Clear
4:53 AM 45.0 °F 37.6 °F 30.9 °F 58% 29.84 in 10.0 mi South 17.3 mph - N/A   Clear
5:53 AM 46.0 °F 38.8 °F 30.9 °F 56% 29.85 in 10.0 mi South 18.4 mph - N/A   Clear
6:53 AM 43.0 °F 39.5 °F 30.9 °F 62% 29.87 in 10.0 mi SSE 5.8 mph - N/A   Clear
7:53 AM 50.0 °F - 28.9 °F 44% 29.83 in 10.0 mi South 16.1 mph - N/A   Clear
8:53 AM 53.1 °F - 28.9 °F 40% 29.82 in 10.0 mi South 10.4 mph 20.7 mph N/A   Clear
9:53 AM 55.9 °F - 28.0 °F 34% 29.79 in 10.0 mi SSW 20.7 mph 26.5 mph N/A   Clear
10:53 AM 57.0 °F - 28.9 °F 34% 29.78 in 10.0 mi SSW 15.0 mph - N/A   Clear
11:53 AM 59.0 °F - 28.0 °F 31% 29.76 in 10.0 mi SW 19.6 mph - N/A   Clear
12:53 PM 62.1 °F - 28.0 °F 28% 29.74 in 10.0 mi SW 18.4 mph - N/A   Clear
1:53 PM 66.0 °F - 27.0 °F 23% 29.71 in 10.0 mi SW 16.1 mph 23.0 mph N/A   Clear
2:53 PM 64.9 °F - 26.1 °F 23% 29.69 in 10.0 mi SW 17.3 mph - N/A   Clear
3:53 PM 64.9 °F - 25.0 °F 22% 29.69 in 10.0 mi SW 16.1 mph - N/A   Clear
4:53 PM 64.0 °F - 25.0 °F 23% 29.69 in 10.0 mi SW 18.4 mph - N/A   Clear
5:53 PM 62.1 °F - 23.0 °F 22% 29.70 in 10.0 mi WSW 16.1 mph - N/A   Clear
6:25 PM 59.0 °F - 24.8 °F 27% 29.79 in 10.0 mi NW 12.7 mph - N/A   Clear
6:53 PM 54.0 °F - 33.1 °F 45% 29.78 in 10.0 mi NW 8.1 mph - N/A   Clear
7:53 PM 50.0 °F - 34.0 °F 54% 29.77 in 10.0 mi North 5.8 mph - N/A   Scattered Clouds
8:53 PM 48.0 °F - 33.1 °F 56% 29.77 in 10.0 mi Calm Calm - N/A   Clear
9:53 PM 48.0 °F - 32.0 °F 54% 29.78 in 10.0 mi West 8.1 mph - N/A   Scattered Clouds
10:53 PM 50.0 °F - 33.1 °F 52% 29.77 in 10.0 mi Calm Calm - N/A   Mostly Cloudy
11:53 PM 48.9 °F - 32.0 °F 52% 29.78 in 10.0 mi NNE 5.8 mph - N/A   Mostly Cloudy